リニア彗星

239P/LINEAR (2009)

English version
Home page
Updated on August 21, 2010

---------------------------------------------------------------------

・ プロフィール

符号 239P/2010 C2
検出日 2010年2月1日
検出光度 21等
検出者 G. V. Williams (Minor Planet Center), Wide Field Infrared Survey Explorer (NASA)

・ 軌道要素

Epoch 2009 July 28.0 TT = JDT 2455040.5
T 2009 July 25.56417 TT                                 MPC
q   1.6521195            (2000.0)            P               Q
n   0.10413626     Peri.  220.32448     -0.43209690     -0.88152749
a   4.4743993      Node   256.05307     +0.86964625     -0.35144090
e   0.6307617      Incl.   11.30587     +0.23876279     -0.31527541
P   9.46

・ 光度変化

        m1 = 15.5 + 5 logΔ + 10 log r

---------------------------------------------------------------------

軌道要素はM.P.E.C. 2010-P21に掲載されたものです。
光度グラフはComet for Windowsで作成したものです。

---------------------------------------------------------------------

Copyright(C) Seiichi Yoshida (comet@aerith.net). All rights reserved.